El Paso International Airport El Paso US
ICAO: KELP
IATA: ELP
Category: Medium
Scheduled Services: Yes

Elevation: 3959 ft
TransAlt. 18000 ft.

Airport Communications:
APP:119.15
ATIS:120
CLNC DEL:125
DEP:119.15
GND:121.9
ALBUQUERQUE RDO:122.4
TWR:118.3
UNICOM:122.95

KELP Zoom In..

If you have problems with the map follow the link
https://www.worldairports.se/pages/airport.php?
ICAO=KELP

Runways:

(A) RW 04 length 12020 ft width 150 ft
LOC 111.50 / hdg 39

(B) RW 08L length 5499 ft width 75 ft
LOC 111.50 / hdg 77

(C) RW 08R length 9027 ft width 150 ft
LOC 111.50 / hdg 82

(D) RW 22 length 12020 ft width 150 ft
ILS 111.50 / hdg 219

(E) RW 26L length 9027 ft width 150 ft
LOC 111.50 / hdg 262

(F) RW 26R length 5499 ft width 75 ft
LOC 111.50 / hdg 257

Location; KELP
Day. 16 / Time. 01.51 Zulu
* Altimeter: 29.84
* Temperature: 17° c. 62.6°f.
* Wind from: 210° Speed 10 kn.
Dewpoint: -01° c.
Visibility: 10 Statute Miles.
Clouds: Clear (automated report).

KELP 160151Z 21010KT 10SM CLR 17/M01 A2984 RMK AO2 SLP058 T01671011


Wind From 210°
Speed 10 kn.

 
 
jpsmedia worldairports.se 2019   terms of use